contact:dominique.lefevre@mio.osupytheas.fr, maurice.libes@osupytheas.fr, didier.mallarino@osupytheas.fr
Project:EMSO http://www.emso-fr.org/EMSO-France
Depth: 2436.0 m
Title:EMSO Ligure Ouest : Data MII capteur MICROCAT
DateTime_Computer,Latitude,Longitude,Temperature,Conductivity,Pressure,DateTime_Instrument
DateTime_Computer,Latitude,Longitude,degC,S m-1,dbar,DateTime_Instrument
2020-11-24T00:02:26Z,42.805,6.029,13.2976,4.59977,2470.227,2020-11-24T02:03:23Z
2020-11-24T00:05:29Z,42.805,6.029,13.2974,4.59978,2470.227,2020-11-24T02:06:26Z
2020-11-24T00:08:32Z,42.805,6.029,13.2976,4.59978,2470.227,2020-11-24T02:09:29Z
2020-11-24T00:11:35Z,42.805,6.029,13.2975,4.59978,2470.203,2020-11-24T02:12:32Z
2020-11-24T00:14:38Z,42.805,6.029,13.2971,4.59978,2470.24,2020-11-24T02:15:35Z
2020-11-24T00:17:41Z,42.805,6.029,13.2973,4.59978,2470.217,2020-11-24T02:18:39Z
2020-11-24T00:20:44Z,42.805,6.029,13.2974,4.59978,2470.203,2020-11-24T02:21:42Z
2020-11-24T00:23:48Z,42.805,6.029,13.2972,4.59978,2470.25,2020-11-24T02:24:45Z
2020-11-24T00:26:51Z,42.805,6.029,13.2977,4.59978,2470.24,2020-11-24T02:27:48Z
2020-11-24T00:29:54Z,42.805,6.029,13.2977,4.59979,2470.203,2020-11-24T02:30:51Z
2020-11-24T00:32:57Z,42.805,6.029,13.2978,4.59977,2470.24,2020-11-24T02:33:54Z
2020-11-24T00:36:00Z,42.805,6.029,13.2980,4.59978,2470.227,2020-11-24T02:36:57Z
2020-11-24T00:39:03Z,42.805,6.029,13.2975,4.59977,2470.24,2020-11-24T02:40:00Z
2020-11-24T00:42:06Z,42.805,6.029,13.2976,4.59978,2470.227,2020-11-24T02:43:04Z
2020-11-24T00:45:09Z,42.805,6.029,13.2974,4.59978,2470.227,2020-11-24T02:46:07Z
2020-11-24T00:48:13Z,42.805,6.029,13.2976,4.59977,2470.24,2020-11-24T02:49:10Z
2020-11-24T00:51:16Z,42.805,6.029,13.2974,4.59977,2470.24,2020-11-24T02:52:13Z
2020-11-24T00:54:19Z,42.805,6.029,13.2976,4.59977,2470.227,2020-11-24T02:55:16Z
2020-11-24T00:57:22Z,42.805,6.029,13.2974,4.59978,2470.273,2020-11-24T02:58:19Z
2020-11-24T01:00:25Z,42.805,6.029,13.2979,4.59978,2470.217,2020-11-24T03:01:22Z
2020-11-24T01:03:28Z,42.805,6.029,13.2973,4.59978,2470.227,2020-11-24T03:04:25Z
2020-11-24T01:06:31Z,42.805,6.029,13.2976,4.59977,2470.227,2020-11-24T03:07:29Z
2020-11-24T01:09:34Z,42.805,6.029,13.2974,4.59977,2470.227,2020-11-24T03:10:32Z
2020-11-24T01:12:38Z,42.805,6.029,13.2974,4.59976,2470.24,2020-11-24T03:13:35Z
2020-11-24T01:15:41Z,42.805,6.029,13.2976,4.59977,2470.227,2020-11-24T03:16:38Z
2020-11-24T01:18:44Z,42.805,6.029,13.2974,4.59977,2470.273,2020-11-24T03:19:41Z
2020-11-24T01:21:47Z,42.805,6.029,13.2977,4.59976,2470.264,2020-11-24T03:22:44Z
2020-11-24T01:24:50Z,42.805,6.029,13.2970,4.59978,2470.25,2020-11-24T03:25:47Z
2020-11-24T01:27:53Z,42.805,6.029,13.2976,4.59978,2470.227,2020-11-24T03:28:50Z
2020-11-24T01:30:56Z,42.805,6.029,13.2974,4.59977,2470.25,2020-11-24T03:31:53Z
2020-11-24T01:33:59Z,42.805,6.029,13.2977,4.59978,2470.25,2020-11-24T03:34:57Z
2020-11-24T01:37:03Z,42.805,6.029,13.2975,4.59976,2470.264,2020-11-24T03:38:00Z
2020-11-24T01:40:06Z,42.805,6.029,13.2974,4.59977,2470.273,2020-11-24T03:41:03Z
2020-11-24T01:43:09Z,42.805,6.029,13.2973,4.59978,2470.25,2020-11-24T03:44:06Z
2020-11-24T01:46:12Z,42.805,6.029,13.2971,4.59976,2470.264,2020-11-24T03:47:09Z
2020-11-24T01:49:15Z,42.805,6.029,13.2974,4.59976,2470.25,2020-11-24T03:50:12Z
2020-11-24T01:52:18Z,42.805,6.029,13.2973,4.59978,2470.24,2020-11-24T03:53:15Z
2020-11-24T01:55:21Z,42.805,6.029,13.2972,4.59978,2470.25,2020-11-24T03:56:18Z
2020-11-24T01:58:24Z,42.805,6.029,13.2976,4.59977,2470.264,2020-11-24T03:59:22Z
2020-11-24T02:01:28Z,42.805,6.029,13.2974,4.59976,2470.25,2020-11-24T04:02:25Z
2020-11-24T02:04:31Z,42.805,6.029,13.2979,4.59978,2470.287,2020-11-24T04:05:28Z
2020-11-24T02:07:34Z,42.805,6.029,13.2974,4.59976,2470.25,2020-11-24T04:08:31Z
2020-11-24T02:10:37Z,42.805,6.029,13.2976,4.59978,2470.25,2020-11-24T04:11:34Z
2020-11-24T02:13:40Z,42.805,6.029,13.2974,4.59977,2470.25,2020-11-24T04:14:37Z
2020-11-24T02:16:43Z,42.805,6.029,13.2973,4.59978,2470.25,2020-11-24T04:17:40Z
2020-11-24T02:19:46Z,42.805,6.029,13.2973,4.59978,2470.25,2020-11-24T04:20:43Z
2020-11-24T02:22:49Z,42.805,6.029,13.2973,4.59978,2470.203,2020-11-24T04:23:47Z
2020-11-24T02:25:52Z,42.805,6.029,13.2977,4.59978,2470.273,2020-11-24T04:26:50Z
2020-11-24T02:28:56Z,42.805,6.029,13.2975,4.59980,2470.236,2020-11-24T04:29:53Z
2020-11-24T02:31:59Z,42.805,6.029,13.2973,4.59977,2470.264,2020-11-24T04:32:56Z
2020-11-24T02:35:02Z,42.805,6.029,13.2973,4.59978,2470.273,2020-11-24T04:35:59Z
2020-11-24T02:38:05Z,42.805,6.029,13.2974,4.59977,2470.25,2020-11-24T04:39:02Z
2020-11-24T02:41:08Z,42.805,6.029,13.2978,4.59976,2470.25,2020-11-24T04:42:05Z
2020-11-24T02:44:11Z,42.805,6.029,13.2972,4.59976,2470.287,2020-11-24T04:45:08Z
2020-11-24T02:47:14Z,42.805,6.029,13.2975,4.59976,2470.227,2020-11-24T04:48:12Z
2020-11-24T02:50:17Z,42.805,6.029,13.2976,4.59978,2470.273,2020-11-24T04:51:15Z
2020-11-24T02:53:21Z,42.805,6.029,13.2974,4.59976,2470.287,2020-11-24T04:54:18Z
2020-11-24T02:56:24Z,42.805,6.029,13.2976,4.59976,2470.25,2020-11-24T04:57:21Z
2020-11-24T02:59:27Z,42.805,6.029,13.2975,4.59978,2470.25,2020-11-24T05:00:24Z
2020-11-24T03:02:30Z,42.805,6.029,13.2973,4.59978,2470.25,2020-11-24T05:03:27Z
2020-11-24T03:05:33Z,42.805,6.029,13.2976,4.59977,2470.273,2020-11-24T05:06:30Z
2020-11-24T03:08:36Z,42.805,6.029,13.2973,4.59978,2470.25,2020-11-24T05:09:33Z
2020-11-24T03:11:39Z,42.805,6.029,13.2976,4.59976,2470.264,2020-11-24T05:12:37Z
2020-11-24T03:14:42Z,42.805,6.029,13.2975,4.59976,2470.297,2020-11-24T05:15:40Z
2020-11-24T03:17:46Z,42.805,6.029,13.2976,4.59977,2470.273,2020-11-24T05:18:43Z
2020-11-24T03:20:49Z,42.805,6.029,13.2973,4.59976,2470.25,2020-11-24T05:21:46Z
2020-11-24T03:23:52Z,42.805,6.029,13.2976,4.59976,2470.287,2020-11-24T05:24:49Z
2020-11-24T03:26:55Z,42.805,6.029,13.2974,4.59977,2470.273,2020-11-24T05:27:52Z
2020-11-24T03:29:58Z,42.805,6.029,13.2979,4.59976,2470.287,2020-11-24T05:30:55Z
2020-11-24T03:33:01Z,42.805,6.029,13.2972,4.59978,2470.297,2020-11-24T05:33:58Z
2020-11-24T03:36:04Z,42.805,6.029,13.2975,4.59977,2470.273,2020-11-24T05:37:02Z
2020-11-24T03:39:07Z,42.805,6.029,13.2971,4.59976,2470.25,2020-11-24T05:40:05Z
2020-11-24T03:42:11Z,42.805,6.029,13.2978,4.59977,2470.297,2020-11-24T05:43:08Z
2020-11-24T03:45:14Z,42.805,6.029,13.2976,4.59976,2470.287,2020-11-24T05:46:11Z
2020-11-24T03:48:17Z,42.805,6.029,13.2975,4.59978,2470.25,2020-11-24T05:49:14Z
2020-11-24T03:51:20Z,42.805,6.029,13.2972,4.59977,2470.227,2020-11-24T05:52:17Z
2020-11-24T03:54:23Z,42.805,6.029,13.2975,4.59978,2470.25,2020-11-24T05:55:20Z
2020-11-24T03:57:26Z,42.805,6.029,13.2972,4.59976,2470.273,2020-11-24T05:58:23Z
2020-11-24T04:00:29Z,42.805,6.029,13.2974,4.59978,2470.287,2020-11-24T06:01:27Z
2020-11-24T04:03:32Z,42.805,6.029,13.2974,4.59976,2470.287,2020-11-24T06:04:30Z
2020-11-24T04:06:36Z,42.805,6.029,13.2976,4.59977,2470.297,2020-11-24T06:07:33Z
2020-11-24T04:09:39Z,42.805,6.029,13.2974,4.59978,2470.25,2020-11-24T06:10:36Z
2020-11-24T04:12:42Z,42.805,6.029,13.2976,4.59977,2470.273,2020-11-24T06:13:39Z
2020-11-24T04:15:45Z,42.805,6.029,13.2971,4.59978,2470.264,2020-11-24T06:16:42Z
2020-11-24T04:18:48Z,42.805,6.029,13.2974,4.59976,2470.25,2020-11-24T06:19:45Z
2020-11-24T04:21:51Z,42.805,6.029,13.2977,4.59977,2470.25,2020-11-24T06:22:48Z
2020-11-24T04:24:54Z,42.805,6.029,13.2974,4.59977,2470.273,2020-11-24T06:25:51Z
2020-11-24T04:27:57Z,42.805,6.029,13.2975,4.59976,2470.273,2020-11-24T06:28:55Z
2020-11-24T04:31:01Z,42.805,6.029,13.2977,4.59978,2470.264,2020-11-24T06:31:58Z
2020-11-24T04:34:04Z,42.805,6.029,13.2977,4.59976,2470.227,2020-11-24T06:35:01Z
2020-11-24T04:37:07Z,42.805,6.029,13.2976,4.59978,2470.25,2020-11-24T06:38:04Z
2020-11-24T04:40:10Z,42.805,6.029,13.2972,4.59977,2470.264,2020-11-24T06:41:07Z
2020-11-24T04:43:13Z,42.805,6.029,13.2974,4.59978,2470.25,2020-11-24T06:44:10Z
2020-11-24T04:46:16Z,42.805,6.029,13.2978,4.59978,2470.24,2020-11-24T06:47:13Z
2020-11-24T04:49:19Z,42.805,6.029,13.2970,4.59976,2470.287,2020-11-24T06:50:16Z
2020-11-24T04:52:22Z,42.805,6.029,13.2972,4.59976,2470.264,2020-11-24T06:53:20Z
2020-11-24T04:55:25Z,42.805,6.029,13.2972,4.59978,2470.287,2020-11-24T06:56:23Z
2020-11-24T04:58:29Z,42.805,6.029,13.2976,4.59978,2470.287,2020-11-24T06:59:26Z
2020-11-24T05:01:32Z,42.805,6.029,13.2970,4.59976,2470.273,2020-11-24T07:02:29Z
2020-11-24T05:04:35Z,42.805,6.029,13.2976,4.59976,2470.273,2020-11-24T07:05:32Z
2020-11-24T05:07:38Z,42.805,6.029,13.2974,4.59978,2470.264,2020-11-24T07:08:35Z
2020-11-24T05:10:41Z,42.805,6.029,13.2972,4.59978,2470.278,2020-11-24T07:11:38Z
2020-11-24T05:13:44Z,42.805,6.029,13.2974,4.59978,2470.25,2020-11-24T07:14:41Z
2020-11-24T05:16:47Z,42.805,6.029,13.2973,4.59977,2470.264,2020-11-24T07:17:45Z
2020-11-24T05:19:50Z,42.805,6.029,13.2976,4.59977,2470.25,2020-11-24T07:20:48Z
2020-11-24T05:22:54Z,42.805,6.029,13.2972,4.59977,2470.25,2020-11-24T07:23:51Z
2020-11-24T05:25:57Z,42.805,6.029,13.2976,4.59978,2470.273,2020-11-24T07:26:54Z
2020-11-24T05:29:00Z,42.805,6.029,13.2978,4.59978,2470.227,2020-11-24T07:29:57Z
2020-11-24T05:32:03Z,42.805,6.029,13.2979,4.59978,2470.264,2020-11-24T07:33:00Z
2020-11-24T05:35:06Z,42.805,6.029,13.2978,4.59977,2470.273,2020-11-24T07:36:03Z
2020-11-24T05:38:09Z,42.805,6.029,13.2974,4.59977,2470.25,2020-11-24T07:39:06Z
2020-11-24T05:41:12Z,42.805,6.029,13.2974,4.59978,2470.25,2020-11-24T07:42:09Z
2020-11-24T05:44:15Z,42.805,6.029,13.2971,4.59977,2470.227,2020-11-24T07:45:13Z
2020-11-24T05:47:18Z,42.805,6.029,13.2976,4.59978,2470.278,2020-11-24T07:48:16Z
2020-11-24T05:50:22Z,42.805,6.029,13.2971,4.59977,2470.24,2020-11-24T07:51:19Z
2020-11-24T05:53:25Z,42.805,6.029,13.2976,4.59977,2470.264,2020-11-24T07:54:22Z
2020-11-24T05:56:28Z,42.805,6.029,13.2976,4.59978,2470.287,2020-11-24T07:57:25Z
2020-11-24T05:59:31Z,42.805,6.029,13.2976,4.59977,2470.25,2020-11-24T08:00:28Z
2020-11-24T06:02:34Z,42.805,6.029,13.2976,4.59980,2470.287,2020-11-24T08:03:31Z
2020-11-24T06:05:37Z,42.805,6.029,13.2974,4.59978,2470.227,2020-11-24T08:06:34Z
2020-11-24T06:08:40Z,42.805,6.029,13.2972,4.59978,2470.227,2020-11-24T08:09:38Z
2020-11-24T06:11:43Z,42.805,6.029,13.2976,4.59978,2470.264,2020-11-24T08:12:41Z
2020-11-24T06:14:47Z,42.805,6.029,13.2973,4.59978,2470.264,2020-11-24T08:15:44Z
2020-11-24T06:17:50Z,42.805,6.029,13.2975,4.59977,2470.227,2020-11-24T08:18:47Z
2020-11-24T06:20:53Z,42.805,6.029,13.2972,4.59978,2470.24,2020-11-24T08:21:50Z
2020-11-24T06:23:56Z,42.805,6.029,13.2974,4.59980,2470.25,2020-11-24T08:24:53Z
2020-11-24T06:26:59Z,42.805,6.029,13.2975,4.59977,2470.227,2020-11-24T08:27:56Z
2020-11-24T06:30:02Z,42.805,6.029,13.2973,4.59978,2470.227,2020-11-24T08:30:59Z
2020-11-24T06:33:05Z,42.805,6.029,13.2973,4.59978,2470.25,2020-11-24T08:34:03Z
2020-11-24T06:36:08Z,42.805,6.029,13.2971,4.59978,2470.24,2020-11-24T08:37:06Z
2020-11-24T06:39:11Z,42.805,6.029,13.2974,4.59977,2470.24,2020-11-24T08:40:09Z
2020-11-24T06:42:15Z,42.805,6.029,13.2977,4.59978,2470.24,2020-11-24T08:43:12Z
2020-11-24T06:45:18Z,42.805,6.029,13.2973,4.59978,2470.217,2020-11-24T08:46:15Z
2020-11-24T06:48:21Z,42.805,6.029,13.2974,4.59978,2470.24,2020-11-24T08:49:18Z
2020-11-24T06:51:24Z,42.805,6.029,13.2977,4.59978,2470.264,2020-11-24T08:52:21Z
2020-11-24T06:54:27Z,42.805,6.029,13.2974,4.59978,2470.227,2020-11-24T08:55:24Z
2020-11-24T06:57:30Z,42.805,6.029,13.2973,4.59978,2470.203,2020-11-24T08:58:28Z
2020-11-24T07:00:33Z,42.805,6.029,13.2976,4.59979,2470.25,2020-11-24T09:01:31Z
2020-11-24T07:03:36Z,42.805,6.029,13.2976,4.59978,2470.227,2020-11-24T09:04:34Z
2020-11-24T07:06:40Z,42.805,6.029,13.2977,4.59978,2470.24,2020-11-24T09:07:37Z
2020-11-24T07:09:43Z,42.805,6.029,13.2972,4.59978,2470.264,2020-11-24T09:10:40Z
2020-11-24T07:12:46Z,42.805,6.029,13.2976,4.59978,2470.203,2020-11-24T09:13:43Z
2020-11-24T07:15:49Z,42.805,6.029,13.2976,4.59978,2470.264,2020-11-24T09:16:46Z
2020-11-24T07:18:52Z,42.805,6.029,13.2975,4.59978,2470.25,2020-11-24T09:19:49Z
2020-11-24T07:21:55Z,42.805,6.029,13.2974,4.59978,2470.25,2020-11-24T09:22:52Z
2020-11-24T07:24:58Z,42.805,6.029,13.2974,4.59978,2470.227,2020-11-24T09:25:56Z
2020-11-24T07:28:01Z,42.805,6.029,13.2974,4.59978,2470.25,2020-11-24T09:28:59Z
2020-11-24T07:31:05Z,42.805,6.029,13.2977,4.59978,2470.203,2020-11-24T09:32:02Z
2020-11-24T07:34:08Z,42.805,6.029,13.2976,4.59978,2470.25,2020-11-24T09:35:05Z
2020-11-24T07:37:11Z,42.805,6.029,13.2976,4.59978,2470.24,2020-11-24T09:38:08Z
2020-11-24T07:40:14Z,42.805,6.029,13.2971,4.59978,2470.25,2020-11-24T09:41:11Z
2020-11-24T07:43:17Z,42.805,6.029,13.2979,4.59978,2470.24,2020-11-24T09:44:14Z
2020-11-24T07:46:20Z,42.805,6.029,13.2974,4.59978,2470.25,2020-11-24T09:47:17Z
2020-11-24T07:49:23Z,42.805,6.029,13.2978,4.59977,2470.227,2020-11-24T09:50:21Z
2020-11-24T07:52:26Z,42.805,6.029,13.2977,4.59978,2470.24,2020-11-24T09:53:24Z
2020-11-24T07:55:30Z,42.805,6.029,13.2976,4.59976,2470.227,2020-11-24T09:56:27Z
2020-11-24T07:58:33Z,42.805,6.029,13.2977,4.59978,2470.264,2020-11-24T09:59:30Z
2020-11-24T08:01:36Z,42.805,6.029,13.2974,4.59978,2470.227,2020-11-24T10:02:33Z
2020-11-24T08:04:39Z,42.805,6.029,13.2975,4.59979,2470.203,2020-11-24T10:05:36Z
2020-11-24T08:07:42Z,42.805,6.029,13.2974,4.59978,2470.264,2020-11-24T10:08:39Z
2020-11-24T08:10:45Z,42.805,6.029,13.2975,4.59978,2470.203,2020-11-24T10:11:42Z
2020-11-24T08:13:48Z,42.805,6.029,13.2977,4.59978,2470.24,2020-11-24T10:14:46Z
2020-11-24T08:16:51Z,42.805,6.029,13.2976,4.59978,2470.227,2020-11-24T10:17:49Z
2020-11-24T08:19:55Z,42.805,6.029,13.2974,4.59978,2470.203,2020-11-24T10:20:52Z
2020-11-24T08:22:58Z,42.805,6.029,13.2975,4.59977,2470.227,2020-11-24T10:23:55Z
2020-11-24T08:26:01Z,42.805,6.029,13.2975,4.59978,2470.25,2020-11-24T10:26:58Z
2020-11-24T08:29:04Z,42.805,6.029,13.2976,4.59978,2470.203,2020-11-24T10:30:01Z
2020-11-24T08:32:07Z,42.805,6.029,13.2974,4.59978,2470.217,2020-11-24T10:33:04Z
2020-11-24T08:35:10Z,42.805,6.029,13.2973,4.59978,2470.24,2020-11-24T10:36:07Z
2020-11-24T08:38:13Z,42.805,6.029,13.2976,4.59978,2470.227,2020-11-24T10:39:11Z
2020-11-24T08:41:16Z,42.805,6.029,13.2972,4.59978,2470.227,2020-11-24T10:42:14Z
2020-11-24T08:44:20Z,42.805,6.029,13.2976,4.59978,2470.203,2020-11-24T10:45:17Z
2020-11-24T08:47:23Z,42.805,6.029,13.2975,4.59978,2470.24,2020-11-24T10:48:20Z
2020-11-24T08:50:26Z,42.805,6.029,13.2971,4.59978,2470.227,2020-11-24T10:51:23Z
2020-11-24T08:53:29Z,42.805,6.029,13.2974,4.59979,2470.203,2020-11-24T10:54:26Z
2020-11-24T08:56:32Z,42.805,6.029,13.2972,4.59978,2470.227,2020-11-24T10:57:29Z
2020-11-24T08:59:35Z,42.805,6.029,13.2976,4.59976,2470.264,2020-11-24T11:00:32Z
2020-11-24T09:02:38Z,42.805,6.029,13.2973,4.59978,2470.203,2020-11-24T11:03:36Z
2020-11-24T09:05:41Z,42.805,6.029,13.2975,4.59978,2470.227,2020-11-24T11:06:39Z
2020-11-24T09:08:45Z,42.805,6.029,13.2974,4.59979,2470.24,2020-11-24T11:09:42Z
2020-11-24T09:11:48Z,42.805,6.029,13.2974,4.59978,2470.227,2020-11-24T11:12:45Z
2020-11-24T09:14:51Z,42.805,6.029,13.2976,4.59978,2470.203,2020-11-24T11:15:48Z
2020-11-24T09:17:54Z,42.805,6.029,13.2974,4.59978,2470.203,2020-11-24T11:18:51Z
2020-11-24T09:20:57Z,42.805,6.029,13.2975,4.59981,2470.18,2020-11-24T11:21:54Z
2020-11-24T09:24:00Z,42.805,6.029,13.2974,4.59978,2470.217,2020-11-24T11:24:57Z
2020-11-24T09:27:03Z,42.805,6.029,13.2975,4.59979,2470.194,2020-11-24T11:28:01Z
2020-11-24T09:30:06Z,42.805,6.029,13.2973,4.59980,2470.227,2020-11-24T11:31:04Z
2020-11-24T09:33:10Z,42.805,6.029,13.2973,4.59978,2470.227,2020-11-24T11:34:07Z
2020-11-24T09:36:13Z,42.805,6.029,13.2974,4.59979,2470.203,2020-11-24T11:37:10Z
2020-11-24T09:39:16Z,42.805,6.029,13.2978,4.59978,2470.24,2020-11-24T11:40:13Z
2020-11-24T09:42:19Z,42.805,6.029,13.2977,4.59981,2470.203,2020-11-24T11:43:16Z
2020-11-24T09:45:22Z,42.805,6.029,13.2977,4.59980,2470.203,2020-11-24T11:46:19Z
2020-11-24T09:48:25Z,42.805,6.029,13.2974,4.59979,2470.217,2020-11-24T11:49:23Z
2020-11-24T09:51:28Z,42.805,6.029,13.2979,4.59978,2470.25,2020-11-24T11:52:26Z
2020-11-24T09:54:32Z,42.805,6.029,13.2976,4.59978,2470.227,2020-11-24T11:55:29Z
2020-11-24T09:57:35Z,42.805,6.029,13.2974,4.59978,2470.203,2020-11-24T11:58:32Z
2020-11-24T10:00:38Z,42.805,6.029,13.2974,4.59979,2470.227,2020-11-24T12:01:35Z
2020-11-24T10:03:41Z,42.805,6.029,13.2973,4.59981,2470.227,2020-11-24T12:04:38Z
2020-11-24T10:06:44Z,42.805,6.029,13.2974,4.59981,2470.227,2020-11-24T12:07:41Z
2020-11-24T10:09:47Z,42.805,6.029,13.2976,4.59980,2470.189,2020-11-24T12:10:44Z
2020-11-24T10:12:50Z,42.805,6.029,13.2976,4.59978,2470.24,2020-11-24T12:13:48Z
2020-11-24T10:15:53Z,42.805,6.029,13.2975,4.59979,2470.25,2020-11-24T12:16:51Z
2020-11-24T10:18:57Z,42.805,6.029,13.2973,4.59980,2470.227,2020-11-24T12:19:54Z
2020-11-24T10:22:00Z,42.805,6.029,13.2975,4.59978,2470.217,2020-11-24T12:22:57Z
2020-11-24T10:25:03Z,42.805,6.029,13.2971,4.59981,2470.203,2020-11-24T12:26:00Z
2020-11-24T10:28:06Z,42.805,6.029,13.2976,4.59981,2470.227,2020-11-24T12:29:03Z
2020-11-24T10:31:09Z,42.805,6.029,13.2969,4.59979,2470.25,2020-11-24T12:32:06Z
2020-11-24T10:34:12Z,42.805,6.029,13.2974,4.59979,2470.203,2020-11-24T12:35:09Z
2020-11-24T10:37:15Z,42.805,6.029,13.2977,4.59978,2470.227,2020-11-24T12:38:13Z
2020-11-24T10:40:18Z,42.805,6.029,13.2975,4.59980,2470.227,2020-11-24T12:41:16Z
2020-11-24T10:43:22Z,42.805,6.029,13.2977,4.59978,2470.227,2020-11-24T12:44:19Z
2020-11-24T10:46:25Z,42.805,6.029,13.2974,4.59980,2470.25,2020-11-24T12:47:22Z
2020-11-24T10:49:28Z,42.805,6.029,13.2974,4.59979,2470.227,2020-11-24T12:50:25Z
2020-11-24T10:52:31Z,42.805,6.029,13.2976,4.59978,2470.203,2020-11-24T12:53:28Z
2020-11-24T10:55:34Z,42.805,6.029,13.2974,4.59978,2470.24,2020-11-24T12:56:31Z
2020-11-24T10:58:37Z,42.805,6.029,13.2975,4.59979,2470.217,2020-11-24T12:59:34Z
2020-11-24T11:01:40Z,42.805,6.029,13.2975,4.59979,2470.227,2020-11-24T13:02:38Z
2020-11-24T11:04:43Z,42.805,6.029,13.2976,4.59979,2470.264,2020-11-24T13:05:41Z
2020-11-24T11:07:47Z,42.805,6.029,13.3007,4.59994,2470.24,2020-11-24T13:08:44Z
2020-11-24T11:10:50Z,42.805,6.029,13.2977,4.59987,2470.287,2020-11-24T13:11:47Z
2020-11-24T11:13:53Z,42.805,6.029,13.2972,4.59979,2470.24,2020-11-24T13:14:50Z
2020-11-24T11:16:56Z,42.805,6.029,13.2977,4.59978,2470.25,2020-11-24T13:17:53Z
2020-11-24T11:19:59Z,42.805,6.029,13.2976,4.59979,2470.264,2020-11-24T13:20:56Z
2020-11-24T11:23:02Z,42.805,6.029,13.2979,4.59978,2470.25,2020-11-24T13:23:59Z
2020-11-24T11:26:05Z,42.805,6.029,13.2976,4.59978,2470.203,2020-11-24T13:27:03Z
2020-11-24T11:29:08Z,42.805,6.029,13.2978,4.59978,2470.273,2020-11-24T13:30:06Z
2020-11-24T11:32:12Z,42.805,6.029,13.2974,4.59979,2470.25,2020-11-24T13:33:09Z
2020-11-24T11:35:15Z,42.805,6.029,13.2975,4.59980,2470.25,2020-11-24T13:36:12Z
2020-11-24T11:38:18Z,42.805,6.029,13.2974,4.59978,2470.227,2020-11-24T13:39:15Z
2020-11-24T11:41:21Z,42.805,6.029,13.2977,4.59978,2470.287,2020-11-24T13:42:18Z
2020-11-24T11:44:24Z,42.805,6.029,13.2972,4.59979,2470.25,2020-11-24T13:45:21Z
2020-11-24T11:47:27Z,42.805,6.029,13.2973,4.59978,2470.264,2020-11-24T13:48:24Z
2020-11-24T11:50:30Z,42.805,6.029,13.2973,4.59979,2470.273,2020-11-24T13:51:28Z
2020-11-24T11:53:33Z,42.805,6.029,13.2974,4.59978,2470.273,2020-11-24T13:54:31Z
2020-11-24T11:56:37Z,42.805,6.029,13.2974,4.59978,2470.227,2020-11-24T13:57:34Z
2020-11-24T11:59:40Z,42.805,6.029,13.2977,4.59978,2470.25,2020-11-24T14:00:37Z
2020-11-24T12:02:43Z,42.805,6.029,13.2974,4.59981,2470.203,2020-11-24T14:03:40Z
2020-11-24T12:05:46Z,42.805,6.029,13.2977,4.59980,2470.25,2020-11-24T14:06:43Z
2020-11-24T12:08:49Z,42.805,6.029,13.2976,4.59978,2470.26,2020-11-24T14:09:46Z
2020-11-24T12:11:52Z,42.805,6.029,13.2979,4.59978,2470.273,2020-11-24T14:12:49Z
2020-11-24T12:14:55Z,42.805,6.029,13.2973,4.59979,2470.273,2020-11-24T14:15:53Z
2020-11-24T12:17:58Z,42.805,6.029,13.2972,4.59978,2470.25,2020-11-24T14:18:56Z
2020-11-24T12:21:02Z,42.805,6.029,13.2975,4.59978,2470.264,2020-11-24T14:21:59Z
2020-11-24T12:24:05Z,42.805,6.029,13.2976,4.59978,2470.264,2020-11-24T14:25:02Z
2020-11-24T12:27:08Z,42.805,6.029,13.2971,4.59979,2470.287,2020-11-24T14:28:05Z
2020-11-24T12:30:11Z,42.805,6.029,13.2975,4.59978,2470.297,2020-11-24T14:31:08Z
2020-11-24T12:33:14Z,42.805,6.029,13.2978,4.59979,2470.25,2020-11-24T14:34:11Z
2020-11-24T12:36:17Z,42.805,6.029,13.2975,4.59981,2470.287,2020-11-24T14:37:15Z
2020-11-24T12:39:20Z,42.805,6.029,13.2977,4.59979,2470.287,2020-11-24T14:40:18Z
2020-11-24T12:42:23Z,42.805,6.029,13.2973,4.59979,2470.273,2020-11-24T14:43:21Z
2020-11-24T12:45:27Z,42.805,6.029,13.2976,4.59981,2470.297,2020-11-24T14:46:24Z
2020-11-24T12:48:30Z,42.805,6.029,13.2976,4.59980,2470.287,2020-11-24T14:49:27Z
2020-11-24T12:51:33Z,42.805,6.029,13.2978,4.59978,2470.273,2020-11-24T14:52:30Z
2020-11-24T12:54:36Z,42.805,6.029,13.2976,4.59979,2470.287,2020-11-24T14:55:33Z
2020-11-24T12:57:39Z,42.805,6.029,13.2976,4.59978,2470.297,2020-11-24T14:58:36Z
2020-11-24T13:00:42Z,42.805,6.029,13.2979,4.59978,2470.287,2020-11-24T15:01:40Z
2020-11-24T13:03:45Z,42.805,6.029,13.2974,4.59979,2470.297,2020-11-24T15:04:43Z
2020-11-24T13:06:49Z,42.805,6.029,13.2977,4.59980,2470.297,2020-11-24T15:07:46Z
2020-11-24T13:09:52Z,42.805,6.029,13.2975,4.59980,2470.297,2020-11-24T15:10:49Z
2020-11-24T13:12:55Z,42.805,6.029,13.2975,4.59980,2470.32,2020-11-24T15:13:52Z
2020-11-24T13:15:58Z,42.805,6.029,13.2971,4.59979,2470.297,2020-11-24T15:16:55Z
2020-11-24T13:19:01Z,42.805,6.029,13.2978,4.59980,2470.334,2020-11-24T15:19:58Z
2020-11-24T13:22:04Z,42.805,6.029,13.2976,4.59979,2470.264,2020-11-24T15:23:01Z
2020-11-24T13:25:07Z,42.805,6.029,13.2978,4.59981,2470.32,2020-11-24T15:26:05Z
2020-11-24T13:28:10Z,42.805,6.029,13.2973,4.59980,2470.297,2020-11-24T15:29:08Z
2020-11-24T13:31:14Z,42.805,6.029,13.2976,4.59980,2470.264,2020-11-24T15:32:11Z
2020-11-24T13:34:17Z,42.805,6.029,13.2973,4.59981,2470.273,2020-11-24T15:35:14Z
2020-11-24T13:37:20Z,42.805,6.029,13.2976,4.59980,2470.297,2020-11-24T15:38:17Z
2020-11-24T13:40:23Z,42.805,6.029,13.2976,4.59980,2470.32,2020-11-24T15:41:20Z
2020-11-24T13:43:26Z,42.805,6.029,13.2977,4.59980,2470.334,2020-11-24T15:44:23Z
2020-11-24T13:46:29Z,42.805,6.029,13.2974,4.59981,2470.334,2020-11-24T15:47:26Z
2020-11-24T13:49:32Z,42.805,6.029,13.2974,4.59981,2470.31,2020-11-24T15:50:30Z
2020-11-24T13:52:35Z,42.805,6.029,13.2976,4.59981,2470.273,2020-11-24T15:53:33Z
2020-11-24T13:55:39Z,42.805,6.029,13.2976,4.59980,2470.273,2020-11-24T15:56:36Z
2020-11-24T13:58:42Z,42.805,6.029,13.2975,4.59980,2470.264,2020-11-24T15:59:39Z
2020-11-24T14:01:45Z,42.805,6.029,13.2978,4.59980,2470.297,2020-11-24T16:02:42Z
2020-11-24T14:04:48Z,42.805,6.029,13.2976,4.59980,2470.297,2020-11-24T16:05:45Z
2020-11-24T14:07:51Z,42.805,6.029,13.2974,4.59980,2470.334,2020-11-24T16:08:48Z
2020-11-24T14:10:54Z,42.805,6.029,13.2976,4.59980,2470.32,2020-11-24T16:11:51Z
2020-11-24T14:13:57Z,42.805,6.029,13.2980,4.59980,2470.334,2020-11-24T16:14:55Z
2020-11-24T14:17:00Z,42.805,6.029,13.2975,4.59980,2470.31,2020-11-24T16:17:58Z
2020-11-24T14:20:04Z,42.805,6.029,13.2976,4.59981,2470.334,2020-11-24T16:21:01Z
2020-11-24T14:23:07Z,42.805,6.029,13.2979,4.59981,2470.297,2020-11-24T16:24:04Z
2020-11-24T14:26:10Z,42.805,6.029,13.2979,4.59981,2470.334,2020-11-24T16:27:07Z
2020-11-24T14:29:13Z,42.805,6.029,13.2975,4.59981,2470.32,2020-11-24T16:30:10Z
2020-11-24T14:32:16Z,42.805,6.029,13.2981,4.59981,2470.32,2020-11-24T16:33:13Z
2020-11-24T14:35:19Z,42.805,6.029,13.2983,4.59982,2470.32,2020-11-24T16:36:16Z
2020-11-24T14:38:22Z,42.805,6.029,13.2977,4.59981,2470.297,2020-11-24T16:39:20Z
2020-11-24T14:41:25Z,42.805,6.029,13.2977,4.59981,2470.297,2020-11-24T16:42:23Z
2020-11-24T14:44:29Z,42.805,6.029,13.2979,4.59981,2470.297,2020-11-24T16:45:26Z
2020-11-24T14:47:32Z,42.805,6.029,13.2977,4.59979,2470.31,2020-11-24T16:48:29Z
2020-11-24T14:50:35Z,42.805,6.029,13.2977,4.59980,2470.334,2020-11-24T16:51:32Z
2020-11-24T14:53:38Z,42.805,6.029,13.2977,4.59981,2470.357,2020-11-24T16:54:35Z
2020-11-24T14:56:41Z,42.805,6.029,13.2979,4.59980,2470.334,2020-11-24T16:57:38Z
2020-11-24T14:59:44Z,42.805,6.029,13.2979,4.59981,2470.357,2020-11-24T17:00:42Z
2020-11-24T15:02:47Z,42.805,6.029,13.2974,4.59980,2470.357,2020-11-24T17:03:45Z